UAE318 OMDB-RJAA

Flight info

Callsign UAE318
Flight time N/A
Altitude 33000
Route ANVIX DCT UMAMI DCT PASOV DCT GERAR Z890 MCT Q250 KIPOL N881 RASKI L639 BPL A791 CEA/N0500F350 B465 AKSAG B214 LADON/K0924F350 B214 BQ W21 NOB R474 TEBAK/K0924S1070 R474 GYA A599 LEKUV/K0909S1130 A599 ELNEX G204 MULOV V73 SUPAR B221 NINAS G327 LAMEN/N0488F370 A593 SADLI Y590 BEDAR Y591 FUE Y23 OOITA Y40 MYE V40 KTE Y33 KOHWA Y55 GAKKI Y295 KOSKA
Aircraft B77W/H-SDE1E2E3FGHIJ2J3J4J5M1RWXY/LB1D1

Departure

Time 2026-05-07 08:03
Airport Dubai International Airport (OMDB)

Arrival

Time N/A
Airport Narita International Airport (RJAA)
Time Latitude Longitude Altitude Speed Heading
2026-05-07 07:32 25.24155 55.37324 30 ft 0 kts 31°
2026-05-07 07:54 25.24149 55.37319 26 ft 4 kts 31°
2026-05-07 07:55 25.24125 55.37304 28 ft 4 kts 31°
2026-05-07 07:55 25.24106 55.37291 31 ft 4 kts 37°
2026-05-07 07:55 25.24090 55.37273 31 ft 4 kts 66°
2026-05-07 07:55 25.24086 55.37252 31 ft 4 kts 104°
2026-05-07 07:56 25.24096 55.37226 31 ft 4 kts 121°
2026-05-07 07:56 25.24109 55.37203 31 ft 4 kts 121°
2026-05-07 07:56 25.24117 55.37187 31 ft 0 kts 121°
2026-05-07 07:58 25.24114 55.37193 31 ft 4 kts 121°
2026-05-07 07:59 25.24077 55.37261 31 ft 16 kts 121°
2026-05-07 07:59 25.24025 55.37353 30 ft 14 kts 122°
2026-05-07 07:59 25.23979 55.37441 30 ft 12 kts 112°
2026-05-07 07:59 25.23976 55.37534 31 ft 12 kts 75°
2026-05-07 08:00 25.24026 55.37611 29 ft 13 kts 36°
2026-05-07 08:00 25.24108 55.37665 29 ft 14 kts 31°
2026-05-07 08:00 25.24193 55.37722 30 ft 14 kts 31°
2026-05-07 08:00 25.24279 55.37780 27 ft 15 kts 31°
2026-05-07 08:01 25.24363 55.37841 29 ft 15 kts 34°
2026-05-07 08:01 25.24435 55.37895 34 ft 15 kts 34°
2026-05-07 08:01 25.24520 55.37959 34 ft 16 kts 34°
2026-05-07 08:01 25.24623 55.38036 30 ft 20 kts 33°
2026-05-07 08:02 25.24713 55.38097 34 ft 10 kts 31°
2026-05-07 08:02 25.24758 55.38105 35 ft 8 kts 339°
2026-05-07 08:02 25.24795 55.38050 35 ft 14 kts 301°
2026-05-07 08:02 25.24916 55.37829 35 ft 61 kts 301°
2026-05-07 08:03 25.25252 55.37224 36 ft 124 kts 302°
2026-05-07 08:03 25.25800 55.36231 35 ft 176 kts 299°
2026-05-07 08:03 25.26491 55.34993 310 ft 189 kts 301°
2026-05-07 08:03 25.27194 55.33769 795 ft 193 kts 296°
2026-05-07 08:04 25.27873 55.32530 1395 ft 186 kts 296°
2026-05-07 08:04 25.28568 55.31312 2032 ft 187 kts 296°
2026-05-07 08:04 25.29179 55.30053 2527 ft 185 kts 278°
2026-05-07 08:04 25.29176 55.28667 2949 ft 182 kts 249°
2026-05-07 08:05 25.28648 55.27344 3196 ft 188 kts 244°
2026-05-07 08:05 25.28101 55.26043 3609 ft 192 kts 245°
2026-05-07 08:05 25.27532 55.24695 4009 ft 197 kts 245°
2026-05-07 08:05 25.26944 55.23315 4385 ft 200 kts 246°
2026-05-07 08:06 25.26352 55.21926 4755 ft 201 kts 246°
2026-05-07 08:06 25.25850 55.20746 4956 ft 212 kts 246°
2026-05-07 08:06 25.25180 55.19167 5105 ft 229 kts 246°
2026-05-07 08:06 25.24374 55.17632 5381 ft 238 kts 227°
2026-05-07 08:07 25.22921 55.16724 5686 ft 251 kts 191°
2026-05-07 08:07 25.21138 55.16761 5983 ft 259 kts 176°
2026-05-07 08:07 25.19360 55.17087 6354 ft 264 kts 156°
2026-05-07 08:07 25.17906 55.18316 6661 ft 270 kts 123°
2026-05-07 08:08 25.16973 55.20164 6826 ft 282 kts 115°
2026-05-07 08:08 25.16069 55.22104 7373 ft 284 kts 115°
2026-05-07 08:08 25.15156 55.24034 7990 ft 285 kts 116°
2026-05-07 08:08 25.14228 55.25981 8515 ft 289 kts 116°
2026-05-07 08:09 25.13284 55.27954 9078 ft 291 kts 115°
2026-05-07 08:09 25.12332 55.29939 9631 ft 295 kts 116°
2026-05-07 08:09 25.11375 55.31928 10293 ft 292 kts 116°
2026-05-07 08:09 25.10457 55.33875 10893 ft 292 kts 113°
2026-05-07 08:10 25.09598 55.35946 11729 ft 286 kts 113°
2026-05-07 08:10 25.08791 55.37942 12519 ft 285 kts 113°
2026-05-07 08:10 25.07982 55.39929 13271 ft 282 kts 114°
2026-05-07 08:10 25.07178 55.41900 14034 ft 281 kts 113°
2026-05-07 08:11 25.06400 55.43900 14477 ft 292 kts 112°
2026-05-07 08:11 25.05581 55.46044 14643 ft 313 kts 112°
2026-05-07 08:11 25.04719 55.48302 14838 ft 333 kts 112°
2026-05-07 08:11 25.03778 55.50750 15046 ft 353 kts 112°
2026-05-07 08:12 25.02790 55.53314 15214 ft 373 kts 113°
2026-05-07 08:12 25.01736 55.55989 15583 ft 384 kts 115°
2026-05-07 08:12 25.00437 55.58593 16185 ft 389 kts 121°
2026-05-07 08:12 24.98993 55.61137 16741 ft 396 kts 122°
2026-05-07 08:13 24.97515 55.63726 17256 ft 403 kts 122°
2026-05-07 08:13 24.96037 55.66397 17747 ft 411 kts 121°
2026-05-07 08:13 24.94579 55.69084 18175 ft 420 kts 121°
2026-05-07 08:13 24.92997 55.71829 18572 ft 427 kts 125°
2026-05-07 08:14 24.91238 55.74492 19023 ft 433 kts 127°
2026-05-07 08:14 24.89406 55.77148 19526 ft 437 kts 128°
2026-05-07 08:14 24.87573 55.79830 20032 ft 441 kts 127°
2026-05-07 08:14 24.85744 55.82563 20552 ft 445 kts 127°
2026-05-07 08:15 24.83915 55.85321 21017 ft 449 kts 127°
2026-05-07 08:15 24.82116 55.88136 21422 ft 451 kts 121°
2026-05-07 08:15 24.81013 55.91399 21699 ft 461 kts 100°
2026-05-07 08:15 24.80935 55.94916 22223 ft 464 kts 83°
2026-05-07 08:16 24.81724 55.98368 22654 ft 469 kts 68°
2026-05-07 08:16 24.83353 56.01475 23041 ft 469 kts 52°
2026-05-07 08:16 24.85124 56.04479 23299 ft 469 kts 68°
2026-05-07 08:16 24.85868 56.07945 23851 ft 466 kts 89°
2026-05-07 08:17 24.85491 56.11459 24346 ft 462 kts 110°
2026-05-07 08:17 24.84262 56.14711 24854 ft 461 kts 118°
2026-05-07 08:17 24.82812 56.17910 25049 ft 470 kts 118°
2026-05-07 08:17 24.81429 56.21189 25486 ft 473 kts 115°
2026-05-07 08:18 24.80217 56.24559 25973 ft 476 kts 111°
2026-05-07 08:18 24.79286 56.27562 26245 ft 481 kts 109°
2026-05-07 08:18 24.78311 56.31098 26572 ft 486 kts 108°
2026-05-07 08:18 24.77385 56.34700 26890 ft 491 kts 107°
2026-05-07 08:19 24.76470 56.38346 27072 ft 499 kts 107°
2026-05-07 08:19 24.75666 56.41549 27208 ft 505 kts 107°
2026-05-07 08:19 24.74714 56.45294 27417 ft 510 kts 107°
2026-05-07 08:19 24.73744 56.49065 27712 ft 513 kts 107°
2026-05-07 08:20 24.72762 56.52849 28051 ft 515 kts 107°
2026-05-07 08:20 24.71772 56.56643 28348 ft 518 kts 107°
2026-05-07 08:20 24.70773 56.60462 28627 ft 520 kts 108°
2026-05-07 08:20 24.69772 56.64287 28877 ft 523 kts 108°
2026-05-07 08:21 24.68765 56.68138 29129 ft 525 kts 107°
2026-05-07 08:21 24.67752 56.72006 29371 ft 528 kts 108°
2026-05-07 08:21 24.66746 56.75848 29605 ft 530 kts 108°
2026-05-07 08:21 24.65644 56.79764 29866 ft 530 kts 112°
2026-05-07 08:22 24.64195 56.83481 30139 ft 528 kts 118°
2026-05-07 08:22 24.62684 56.86558 30411 ft 526 kts 123°
2026-05-07 08:22 24.60736 56.89869 30727 ft 522 kts 129°
2026-05-07 08:22 24.58504 56.93024 31041 ft 521 kts 131°
2026-05-07 08:23 24.56244 56.96129 31340 ft 520 kts 131°
2026-05-07 08:23 24.53985 56.99223 31645 ft 519 kts 131°
2026-05-07 08:23 24.51728 57.02328 31943 ft 519 kts 131°
2026-05-07 08:23 24.49491 57.05428 32236 ft 518 kts 131°
2026-05-07 08:24 24.47262 57.08535 32548 ft 518 kts 131°
2026-05-07 08:24 24.45344 57.11217 32748 ft 518 kts 131°
2026-05-07 08:24 24.43113 57.14337 32792 ft 521 kts 131°
2026-05-07 08:25 24.38648 57.20580 32812 ft 517 kts 131°
2026-05-07 08:25 24.35263 57.25305 32814 ft 515 kts 131°
2026-05-07 08:26 24.28629 57.34544 32823 ft 514 kts 131°
2026-05-07 08:26 24.24203 57.40696 32820 ft 514 kts 131°
2026-05-07 08:27 24.19768 57.46857 32822 ft 515 kts 131°
2026-05-07 08:27 24.15325 57.53022 32822 ft 516 kts 131°
2026-05-07 08:28 24.10747 57.59062 32817 ft 515 kts 137°
2026-05-07 08:28 24.05382 57.64189 32821 ft 510 kts 147°
2026-05-07 08:29 23.99589 57.68662 32826 ft 510 kts 148°
2026-05-07 08:29 23.93798 57.73151 32826 ft 510 kts 147°
2026-05-07 08:30 23.88030 57.77679 32826 ft 510 kts 147°
2026-05-07 08:30 23.82653 57.81908 32828 ft 510 kts 147°